Weather reports worldwide

Advertisment
St. Mary's, United Kingdom (3803): temperature & dewpoint: 15.02.2020 03:00:00 - 21.02.2020 03:00:00 (GMT)St. Mary's, United Kingdom (3803): temperature -20cm: 15.02.2020 03:00:00 - 21.02.2020 03:00:00 (GMT)St. Mary's, United Kingdom (3803): wind speed & gusts: 15.02.2020 03:00:00 - 21.02.2020 03:00:00 (GMT)St. Mary's, United Kingdom (3803): wind direction: 15.02.2020 03:00:00 - 21.02.2020 03:00:00 (GMT)St. Mary's, United Kingdom (3803): reduced air pressure: 15.02.2020 03:00:00 - 21.02.2020 03:00:00 (GMT)St. Mary's, United Kingdom (3803): visibility: 15.02.2020 03:00:00 - 21.02.2020 03:00:00 (GMT)St. Mary's, United Kingdom (3803): precipitation: 15.02.2020 03:00:00 - 21.02.2020 03:00:00 (GMT)
Date & Time tt [°C] td [°C] tt -20cm [°C] ff [km/h] ff [kn] fx [km/h] fx [kn] dd ppp [hPa] vv [km] rr [mm]
21.02.2020 03:00:00 - - - - - - - - - - -
21.02.2020 02:00:00 8,1 3,1 - 34 18 52 28 WSW 1026,8 24 0,0
21.02.2020 01:00:00 7,8 3,8 - 26 14 50 27 WSW 1026,7 24 0,0
21.02.2020 00:00:00 8,0 2,8 - 29 16 50 27 WSW 1026,4 20 0,0
20.02.2020 23:00:00 7,7 3,0 - 35 19 54 29 WSW 1026,3 30 0,0
20.02.2020 22:00:00 7,6 2,4 - 34 18 46 25 W 1025,7 24 0,0
20.02.2020 21:00:00 7,5 1,7 - 26 14 - - W 1025,3 30 0,0
20.02.2020 20:00:00 7,3 2,3 - 24 13 57 31 W 1024,8 25 0,0
20.02.2020 19:00:00 7,9 1,3 - 31 17 50 27 WNW 1023,8 28 0,0
20.02.2020 18:00:00 7,1 2,1 - 31 17 57 31 WNW 1022,8 30 0,0
20.02.2020 17:00:00 7,6 2,9 - 39 21 55 30 W 1021,4 10 0,0
20.02.2020 16:00:00 7,8 2,8 - 37 20 65 35 W 1020,3 10 0,0
20.02.2020 15:00:00 8,2 1,3 - 44 24 67 36 W 1019,1 10 0,0
20.02.2020 14:00:00 8,4 0,8 - 44 24 68 37 W 1017,9 10 0,0
20.02.2020 13:00:00 8,7 1,9 - 46 25 67 36 W 1016,5 27 0,0
20.02.2020 12:00:00 8,9 3,5 - 44 24 59 32 WNW 1015,0 10 0,0
20.02.2020 11:00:00 8,0 4,7 - 39 21 70 38 WNW 1013,4 10 0,2
20.02.2020 10:00:00 7,3 5,6 - 50 27 68 37 WNW 1011,9 9 0,8
20.02.2020 09:00:00 9,2 8,5 9,2 34 18 54 29 WSW 1009,3 10 0,0
20.02.2020 08:00:00 8,9 8,5 - 28 15 93 50 W 1008,3 2,0 0,2
20.02.2020 07:00:00 10,4 10,0 - 57 31 74 40 SSW 1006,7 3,9 0,2
20.02.2020 06:00:00 10,3 9,7 - 52 28 76 41 SSW 1007,5 5 0,0
20.02.2020 05:00:00 10,1 9,4 - 52 28 72 39 SSW 1008,2 7 0,0
20.02.2020 04:00:00 10,2 9,2 - 59 32 72 39 SSW 1009,2 7 0,0
20.02.2020 03:00:00 10,3 8,8 - 50 27 68 37 SSW 1010,0 11 0,0
20.02.2020 02:00:00 10,1 9,0 - 54 29 70 38 SSW 1011,1 11 0,2
20.02.2020 01:00:00 10,3 9,0 - 50 27 72 39 SSW 1012,0 14 0,0
20.02.2020 00:00:00 10,2 9,0 - 48 26 65 35 SSW 1012,8 10 0,0
19.02.2020 23:00:00 10,1 9,0 - 55 30 68 37 SSW 1013,6 13 0,0
19.02.2020 22:00:00 10,0 9,0 - 54 29 67 36 SSW 1014,5 9 0,4
19.02.2020 21:00:00 10,0 8,7 - 46 25 68 37 SSW 1015,2 7 0,0
19.02.2020 20:00:00 10,1 8,5 - 50 27 61 33 SW 1016,0 14 0,0
19.02.2020 19:00:00 9,7 8,6 - 39 21 61 33 SW 1016,9 14 0,0
19.02.2020 18:00:00 9,9 8,2 - 44 24 65 35 SW 1017,3 15 0,0
19.02.2020 17:00:00 10,2 7,9 - 44 24 61 33 SW 1017,7 10 0,0
19.02.2020 16:00:00 10,4 8,0 - 42 23 68 37 SW 1018,5 10 0,0
19.02.2020 15:00:00 10,9 7,8 - 46 25 67 36 SW 1019,4 10 0,0
19.02.2020 14:00:00 9,8 7,9 - 42 23 67 36 SW 1020,3 10 0,0
19.02.2020 13:00:00 10,8 8,3 - 48 26 68 37 SW 1021,2 10 0,0
19.02.2020 12:00:00 10,6 8,5 - 42 23 57 31 SW 1021,8 10 0,0
19.02.2020 11:00:00 10,8 8,5 - 42 23 57 31 SW 1022,1 10 0,0
19.02.2020 10:00:00 10,2 8,0 - 37 20 50 27 SW 1022,6 13 0,0
19.02.2020 09:00:00 9,9 8,7 8,5 31 17 - - SW 1022,9 9 0,0
19.02.2020 08:00:00 9,5 8,3 - 28 15 - - SW 1023,5 9 0,0
19.02.2020 07:00:00 9,4 8,0 - 28 15 - - WSW 1023,6 14 0,0
19.02.2020 06:00:00 9,4 7,9 - 18 10 - - WSW 1024,2 9 0,0
19.02.2020 05:00:00 9,1 7,3 - 18 10 - - WSW 1024,3 9 -
19.02.2020 04:00:00 8,7 6,3 - 18 10 - - W 1024,7 13 0,0
19.02.2020 03:00:00 8,4 5,3 - 18 10 - - W 1024,8 14 0,0
19.02.2020 02:00:00 8,5 4,8 - 26 14 - - W 1025,0 14 0,0
19.02.2020 01:00:00 8,5 5,6 - 26 14 46 25 W 1025,3 12 0,0
19.02.2020 00:00:00 8,6 4,8 - 35 19 52 28 WNW 1025,0 11 0,0
18.02.2020 23:00:00 8,4 4,6 - 35 19 63 34 WNW 1024,6 11 0,2
18.02.2020 22:00:00 8,5 5,6 - 37 20 65 35 WNW 1024,1 11 0,4
18.02.2020 21:00:00 7,6 4,9 - 39 21 70 38 WNW 1023,6 30 1,0
18.02.2020 20:00:00 8,9 6,1 - 28 15 57 31 W 1022,7 17 0,0
18.02.2020 19:00:00 9,0 6,8 - 37 20 57 31 W 1022,1 17 0,0
18.02.2020 18:00:00 9,0 6,8 - 35 19 54 29 W 1021,9 12 0,0
18.02.2020 17:00:00 8,8 7,8 - 37 20 57 31 W 1021,8 10 0,6
18.02.2020 16:00:00 8,4 7,2 - 41 22 70 38 W 1022,1 8 1,6
18.02.2020 15:00:00 10,5 7,6 - 44 24 68 37 WSW 1021,9 8 0,0
18.02.2020 14:00:00 10,0 7,7 - 42 23 68 37 WSW 1022,4 10 1,0
18.02.2020 13:00:00 10,7 7,0 - 46 25 61 33 WSW 1023,1 16 0,0
18.02.2020 12:00:00 10,5 6,8 - 41 22 70 38 WSW 1023,5 10 0,0
18.02.2020 11:00:00 10,0 6,4 - 41 22 67 36 WSW 1023,6 10 0,0
18.02.2020 10:00:00 9,8 6,3 - 46 25 63 34 SW 1023,6 10 -
18.02.2020 09:00:00 9,4 5,7 8,0 41 22 57 31 WSW 1023,9 10 0,0
18.02.2020 08:00:00 9,0 4,7 - 42 23 61 33 WSW 1023,9 10 0,0
18.02.2020 07:00:00 8,8 4,3 - 37 20 55 30 WSW 1023,6 16 0,0
18.02.2020 06:00:00 8,6 4,1 - 39 21 57 31 W 1024,0 20 -
18.02.2020 05:00:00 8,5 3,7 - 41 22 57 31 W 1023,9 22 -
18.02.2020 04:00:00 8,7 4,0 - 41 22 59 32 W 1023,4 23 0,0
18.02.2020 03:00:00 7,9 4,5 - 29 16 59 32 W 1024,0 23 -
18.02.2020 02:00:00 8,3 3,9 - 42 23 59 32 W 1023,8 30 -
18.02.2020 01:00:00 7,2 3,5 - 39 21 63 34 W 1023,6 26 0,0
18.02.2020 00:00:00 8,0 3,7 - 41 22 61 33 WSW 1023,3 23 -
17.02.2020 23:00:00 7,8 3,2 - 41 22 61 33 W 1022,9 27 0,0
17.02.2020 22:00:00 6,9 4,1 - 37 20 67 36 WSW 1022,8 18 -
17.02.2020 21:00:00 7,6 3,7 - 39 21 63 34 W 1022,1 18 0,0
17.02.2020 20:00:00 7,4 3,9 - 37 20 55 30 W 1021,6 21 0,0
17.02.2020 19:00:00 6,1 3,3 - 41 22 80 43 W 1021,2 15 0,4
17.02.2020 18:00:00 7,9 2,3 - 42 23 59 32 W 1020,1 17 0,0
17.02.2020 17:00:00 7,4 2,7 - 44 24 67 36 W 1019,0 10 0,0
17.02.2020 16:00:00 7,3 1,2 - 37 20 74 40 W 1017,9 10 0,0
17.02.2020 15:00:00 9,0 4,3 - 44 24 65 35 W 1016,9 19 0,2
17.02.2020 14:00:00 9,4 4,2 - 44 24 67 36 W 1016,1 21 0,0
17.02.2020 13:00:00 8,5 2,7 - 48 26 74 40 W 1015,6 30 0,0
17.02.2020 12:00:00 9,8 5,4 - 44 24 63 34 WSW 1015,0 18 0,0
17.02.2020 11:00:00 9,6 5,4 - 50 27 68 37 W 1014,0 10 0,0
17.02.2020 10:00:00 8,9 5,2 - 48 26 70 38 W 1012,9 15 0,0
17.02.2020 09:00:00 8,0 5,4 8,7 50 27 81 44 W 1011,7 16 0,0
17.02.2020 08:00:00 7,0 5,3 - 50 27 80 43 W 1009,8 17 0,6
17.02.2020 07:00:00 8,0 4,6 - 63 34 91 49 WSW 1008,4 18 0,0
17.02.2020 06:00:00 7,7 4,2 - 57 31 85 46 WSW 1008,0 14 0,0
17.02.2020 05:00:00 8,9 2,2 - 55 30 76 41 WSW 1007,5 13 0,0
17.02.2020 04:00:00 8,5 3,3 - 50 27 76 41 WSW 1007,3 12 0,0
17.02.2020 03:00:00 8,4 3,5 - 52 28 81 44 WSW 1007,4 15 0,0
17.02.2020 02:00:00 8,4 3,3 - 61 33 81 44 SW 1007,3 15 0,0
17.02.2020 01:00:00 8,6 3,7 - 55 30 85 46 SW 1007,5 13 0,0
17.02.2020 00:00:00 8,2 2,2 - 61 33 81 44 SW 1007,2 17 0,0
16.02.2020 23:00:00 8,0 3,4 - 57 31 80 43 SW 1007,4 12 0,0
16.02.2020 22:00:00 7,4 3,1 - 61 33 93 50 WSW 1007,1 10 0,0
16.02.2020 21:00:00 9,0 1,4 - 57 31 78 42 WSW 1005,8 10 0,0
16.02.2020 20:00:00 8,4 2,3 - 50 27 74 40 WSW 1005,0 11 0,0
16.02.2020 19:00:00 7,8 2,3 - 61 33 96 52 WSW 1004,3 14 0,0
16.02.2020 18:00:00 6,9 2,0 - 68 37 102 55 W 1003,2 12 0,2
16.02.2020 17:00:00 9,3 3,6 - 55 30 98 53 WSW 1000,7 10 0,0
16.02.2020 16:00:00 9,4 2,7 - 52 28 78 42 WSW 999,6 14 0,0
16.02.2020 15:00:00 9,4 3,7 - 55 30 81 44 WSW 998,8 15 0,0
16.02.2020 14:00:00 8,7 5,3 - 50 27 85 46 WSW 997,8 11 0,2
16.02.2020 13:00:00 9,3 5,9 - 57 31 76 41 WSW 996,6 11 0,0
16.02.2020 12:00:00 7,9 5,9 - 52 28 76 41 WSW 996,6 8 0,8
16.02.2020 11:00:00 7,9 6,4 - 55 30 81 44 WSW 995,6 6 1,8
16.02.2020 10:00:00 8,0 6,7 - 42 23 70 38 WSW 995,2 5 1,8
16.02.2020 09:00:00 8,6 7,7 10,0 42 23 72 39 SW 994,4 3,8 2,2
16.02.2020 08:00:00 9,2 7,9 - 52 28 70 38 SW 994,1 5 0,8
16.02.2020 07:00:00 10,0 8,9 - 48 26 68 37 SW 993,8 5 0,2
16.02.2020 06:00:00 9,9 9,4 - 42 23 55 30 SW 993,4 7 0,2
16.02.2020 05:00:00 9,5 9,2 - 37 20 61 33 WSW 993,5 5 0,6
16.02.2020 04:00:00 9,7 9,5 - 44 24 100 54 W 992,3 2,2 0,8
16.02.2020 03:00:00 12,2 11,9 - 70 38 94 51 SSW 990,5 4,8 0,6
16.02.2020 02:00:00 12,1 11,8 - 72 39 98 53 SSW 991,0 2,2 0,8
16.02.2020 01:00:00 12,2 11,8 - 78 42 102 55 SSW 991,4 2,5 0,6
16.02.2020 00:00:00 12,2 11,8 - 74 40 102 55 SSW 992,2 3,1 0,0
15.02.2020 23:00:00 12,3 11,7 - 78 42 104 56 SSW 992,8 3,6 0,0
15.02.2020 22:00:00 12,5 11,7 - 78 42 102 55 SSW 993,8 3,6 0,0
15.02.2020 21:00:00 12,1 11,6 - 68 37 87 47 SSW 994,7 4,1 0,0
15.02.2020 20:00:00 12,2 11,4 - 59 32 81 44 SSW 995,8 4,8 0,0
15.02.2020 19:00:00 12,1 11,6 - 63 34 85 46 SW 996,1 4,9 0,0
15.02.2020 18:00:00 12,3 11,7 - 68 37 93 50 SW 996,3 4,8 0,0
15.02.2020 17:00:00 12,4 11,8 - 74 40 104 56 SW 995,8 2,7 0,0
15.02.2020 16:00:00 12,0 11,7 - 74 40 100 54 SSW 995,0 3,9 0,4
15.02.2020 15:00:00 11,7 11,3 - 72 39 100 54 SSW 995,4 2,3 0,2
15.02.2020 14:00:00 11,7 11,0 - 72 39 98 53 SSW 996,2 4,0 0,8
15.02.2020 13:00:00 11,6 11,0 - 68 37 102 55 SSW 998,2 2,0 2,0
15.02.2020 12:00:00 11,4 11,0 - 72 39 91 49 SSW 998,8 4,0 1,0
15.02.2020 11:00:00 11,5 11,0 - 65 35 89 48 SSW 1000,5 4,7 1,6
15.02.2020 10:00:00 11,3 10,9 - 67 36 91 49 SSW 1001,5 4,0 1,6
15.02.2020 09:00:00 11,2 10,9 9,2 72 39 93 50 SSW 1002,5 1,8 0,8
15.02.2020 08:00:00 11,2 10,7 - 72 39 89 48 S 1003,5 3,7 0,0
15.02.2020 07:00:00 11,0 10,7 - 74 40 89 48 S 1004,1 3,9 0,0
15.02.2020 06:00:00 11,3 10,9 - 68 37 85 46 S 1005,2 6 0,4
15.02.2020 05:00:00 11,0 10,9 - 61 33 74 40 S 1005,9 2,2 0,8
15.02.2020 04:00:00 10,9 10,8 - 46 25 59 32 SSW 1007,5 1,6 0,2
15.02.2020 03:00:00 10,8 10,7 - 42 23 50 27 SSW 1008,8 10 0,0

tt = temperature
td = dewpoint
tt -20cm = temperature -20cm
ff = wind speed
fx = gusts
dd = wind direction
ppp = reduced air pressure
vv = visibility
rr = precipitation

Next stations